Regional Weather Roundup
Issued by NWS

Home | Current Version | Previous Version | Text Only | Print | Product List | Glossary Off
Versions: 1 2 3 4 5 6 7 8 9 10 11 12 13 14 15 16 17 18 19 20 21 22 23 24 25 26 27 28 29 30 31 32 33 34 35 36 37 38 39 40 41 42 43 44 45 46 47 48 49 50

394
ASUS43 KDTX 171510
RWRMI
MICHIGAN HOURLY REGIONAL WEATHER ROUNDUP
NATIONAL WEATHER SERVICE DETROIT/PONTIAC MI
1100 AM EDT THU AUG 17 2017

NOTE: "FAIR" INDICATES FEW OR NO CLOUDS BELOW 12,000 FEET WITH NO
SIGNIFICANT WEATHER AND/OR OBSTRUCTION TO VISIBILITY.

MIZ047>049-052>055-059>063-066>070-074>076-081>083-171600-
SOUTHEAST LOWER MICHIGAN

CITY           SKY/WX    TMP DP  RH WIND       PRES   REMARKS
ADRIAN         CLOUDY    79  71  76 SW10      29.86F
ALMA           CLOUDY    73  70  89 S13       29.81F
ANN ARBOR      PTSUNNY   75  73  93 S6G25     29.85F FOG
BAD AXE        RAIN      68  65  91 S5        29.87F
CARO           RAIN      69  67  94 SE5       29.83F
DETROIT CITY   CLOUDY    75  73  93 S6        29.86F FOG
DETROIT        CLOUDY    78  74  87 S9        29.86F
FLINT          CLOUDY    72  69  90 S9        29.83F
GROSSE ILE     CLOUDY    77  73  88 S10       29.85F
HILLSDALE      CLOUDY    75  70  83 S9        29.86F
HOWELL         CLOUDY    74  71  91 S10       29.84F FOG

CITY           SKY/WX    TMP DP  RH WIND       PRES   REMARKS
JACKSON        CLOUDY    77  70  79 S13       29.84F
LAMBERTVILLE   CLOUDY    79  74  82 SW6       29.85F
LANSING        CLOUDY    74  69  85 S13       29.82F
LAPEER         CLOUDY    70  68  94 SE6       29.86F
MASON          CLOUDY    75  72  88 S6        29.84S
MONROE         MOSUNNY   79  74  86 S8        29.85F
MT. CLEMENS    LGT RAIN  72  72 100 SE7       29.86F FOG
PONTIAC        CLOUDY    74  72  93 SE9       29.85F FOG
PORT HOPE        N/A     68  65  90 SE10      29.84F
PORT HURON     RAIN      72  68  88 S6        29.90R
TRI CITIES     PTSUNNY   74  71  91 S10       29.82F
MIDLAND        CLOUDY    73  69  86 S9        29.80F
TROY           CLOUDY    74  73  96 SE5       29.88F FOG
SAGINAW HB     LGT RAIN  72  68  88 S9        29.81F
$$
MIZ043>046-050>051-056>058-064>065-071>073-077>080-171600-
SOUTHWEST LOWER MICHIGAN

CITY           SKY/WX    TMP DP  RH WIND       PRES   REMARKS
BATTLE CREEK   LGT RAIN  76  71  85 SW13      29.83F
BENTON HARBOR  CLOUDY    74  69  85 S7        29.78F
BIG RAPIDS     LGT RAIN  70  68  91 CALM      29.79S
COLDWATER      RAIN      75  73  95 SW7       29.84F
FREMONT        RAIN      72  72 100 S6        29.77F
HOLLAND        RAIN      73  70  90 S13       29.79F FOG
GRAND RAPIDS   LGT RAIN  75  72  90 SW12      29.80S
IONIA          CLOUDY    75  71  88 S10       29.80F
KALAMAZOO      CLOUDY    76  69  79 SW12      29.81F
LUDINGTON      LGT RAIN  72  70  93 S7        29.73F
MARSHALL       CLOUDY    77  72  84 S7        29.82F
MOUNT PLEASANT CLOUDY    74  71  88 S5        29.80F
MUSKEGON       LGT RAIN  73  71  93 S13       29.76F FOG
SOUTH HAVEN    PTSUNNY   74  72  93 S3        29.79F
$$
MIZ016>042-171600-
NORTHERN LOWER MICHIGAN

CITY           SKY/WX    TMP DP  RH WIND       PRES   REMARKS
ALPENA         LGT RAIN  67  67 100 SE13G22   29.83F FOG
BEAVER ISLAND  RAIN      67  66  97 SE9G16    29.73F
BELLAIRE       RAIN      68  65  90 S6        29.76F
CADILLAC       RAIN      70  67  90 S6        29.80R
CHARLEVOIX     RAIN      68  68 100 SE9       29.78R
FRANKFORT      LGT RAIN  71  71 100 SE3       29.74F
GAYLORD        RAIN      64  62  93 S14       29.81F FOG
GRAYLING       RAIN      66  64  93 SE5       29.82F
HARBOR SPRINGS CLOUDY    66  65  95 CALM      29.77S
HOUGHTON LAKE  LGT RAIN  67  65  93 S8        29.83F FOG
MANISTEE       CLOUDY    71  70  96 VRB6      29.73F
OSCODA         LGT RAIN  69  66  89 S7        29.84F
PELLSTON       CLOUDY    66  64  93 SE15      29.77F
ROGERS CITY    LGT RAIN  65  63  94 SE13G22   29.83F
TRAVERSE CITY  CLOUDY    69  66  90 VRB3      29.75S
$$
MIZ007>008-015-171600-
EASTERN UPPER MICHIGAN

CITY           SKY/WX    TMP DP  RH WIND       PRES   REMARKS
KINROSS        RAIN      64  63  96 E21G28    29.79F FOG
MACKINAC ISLAN LGT RAIN  65  65 100 SE9       29.77F
NEWBERRY       LGT RAIN  64  63  97 E15       29.74F
S. S. MARIE    LGT RAIN  63  61  93 E9G22     29.80F
MUNISING         N/A     66  66 100 SE9       29.66F
$$
MIZ004>006-011>014-085-171600-
CENTRAL UPPER MICHIGAN

CITY           SKY/WX    TMP DP  RH WIND       PRES   REMARKS
MANISTIQUE     LGT RAIN  65  59  80 SE14      29.69F
ESCANABA       CLOUDY    69  68  96 S8        29.65F
MENOMINEE      CLOUDY    72  69  90 S12       29.66R
SAWYER-GWINN   CLOUDY    64  64 100 SE10      29.66F FOG
$$
MIZ001>003-009>011-084-171600-
WESTERN UPPER MICHIGAN

CITY           SKY/WX    TMP DP  RH WIND       PRES   REMARKS
IRON MOUNTAIN  CLOUDY    70  68  93 SE6       29.62F FOG
HOUGHTON       LGT RAIN  63  61  93 E13G21    29.63F VSB<1/4
COPPER HARBOR    N/A     64  61  90 S13G20    29.65F
IRONWOOD       CLOUDY    69  66  90 SE5       29.59F
$$

ABBREVIATIONS USED IN REMARKS
   TC - TEMPERATURE IN CELSIUS
  WCI - WIND CHILL INDEX
   HX - HEAT INDEX
  VSB - VISIBILITY





USA.gov is the U.S. government's official web portal to all federal, state and local government web resources and services.